Sierra Vista, AZ

6:54 PM MST on April 26, 2017 (GMT -0700)
Sierra Vista Municipal-Libby Army Air Field

Weather History for KFHU - July, 2013

Change the Weather History Date:

Saturday, July 13, 2013

  Actual Average Record
Temperature  
Mean Temperature 79 °F -  
Max Temperature 89 °F 88 °F 100 °F (1987)
Min Temperature 69 °F 69 °F 59 °F (1992)
Cooling Degree Days 14    
Growing Degree Days 29 (Base 50)    
Moisture  
Dew Point 59 °F    
Average Humidity 53    
Maximum Humidity 73    
Minimum Humidity 30    
Precipitation  
Precipitation 0.04 in - - ()
Sea Level Pressure  
Sea Level Pressure 29.96 in    
Wind  
Wind Speed 8 mph (WSW)    
Max Wind Speed 26 mph    
Max Gust Speed 36 mph    
Visibility 10 miles    
Events Rain , Thunderstorm    
Averages and records for this station are not official NWS values.
T = Trace of Precipitation, MM = Missing Value Source: NWS Daily Summary

Daily Weather History Graph

Daily Weather History Graph

Search for Another Location

Airport or City:

Trip Planner

Search our weather history database for the weather conditions in past years. The results will help you decide how hot, cold, wet, or windy it might be!

Date:

Astronomy

Jul. 13, 2013 Rise Set
Actual Time 5:25 AM MST 7:28 PM MST
Civil Twilight 4:58 AM MST 7:55 PM MST
Nautical Twilight 4:24 AM MST 8:29 PM MST
Astronomical Twilight 3:49 AM MST 9:04 PM MST
Moon 10:22 AM MST (7/13) 10:35 PM MST (7/13)
Length of Visible Light 14h 57m
Length of Day
14h 02m
Waxing Crescent, 26% of the Moon is Illuminated
Jul 13
Waxing Crescent
Jul 15
First Quarter
Jul 22
Full
Jul 29
Last Quarter
Aug 6
New

Hourly Weather History & Observations

Time (MST) Temp. Heat Index Dew Point Humidity Pressure Visibility Wind Dir Wind Speed Gust Speed Precip Events Conditions
12:56 AM 75.0 °F - 59.0 °F 57% 29.91 in 10.0 mi WSW 9.2 mph - N/A   Clear
1:56 AM 75.0 °F - 60.1 °F 60% 29.91 in 10.0 mi Calm Calm - N/A   Clear
2:56 AM 73.9 °F - 61.0 °F 64% 29.90 in 10.0 mi Calm Calm - N/A   Clear
3:56 AM 73.9 °F - 60.1 °F 62% 29.91 in 10.0 mi South 4.6 mph - N/A   Clear
4:56 AM 73.0 °F - 60.1 °F 64% 29.93 in 10.0 mi South 5.8 mph - N/A   Clear
5:56 AM 73.0 °F - 61.0 °F 66% 29.94 in 10.0 mi West 3.5 mph - N/A   Clear
6:56 AM 75.0 °F - 61.0 °F 62% 29.95 in 10.0 mi North 5.8 mph - N/A   Clear
7:56 AM 77.0 °F - 61.0 °F 58% 29.97 in 10.0 mi WNW 4.6 mph - N/A   Clear
8:56 AM 79.0 °F - 60.1 °F 52% 29.96 in 10.0 mi NW 4.6 mph - N/A   Clear
9:56 AM 82.0 °F 82.1 °F 59.0 °F 45% 29.94 in 10.0 mi Variable 5.8 mph - N/A   Clear
10:56 AM 84.9 °F 84.2 °F 57.9 °F 40% 29.93 in 10.0 mi Variable 4.6 mph - N/A   Partly Cloudy
11:56 AM 86.0 °F 84.9 °F 57.0 °F 37% 29.91 in 10.0 mi East 4.6 mph 17.3 mph N/A   Partly Cloudy
12:56 PM 88.0 °F 85.7 °F 53.1 °F 30% 29.89 in 10.0 mi Variable 3.5 mph 17.3 mph N/A   Partly Cloudy
1:56 PM 89.1 °F 87.1 °F 55.0 °F 31% 29.87 in 10.0 mi NE 8.1 mph - N/A   Scattered Clouds
2:56 PM 88.0 °F 86.1 °F 55.0 °F 32% 29.86 in 10.0 mi NNE 9.2 mph - N/A   Mostly Cloudy
3:35 PM 87.8 °F 86.5 °F 57.2 °F 35% 30.06 in 10.0 mi NW 16.1 mph - N/A Thunderstorm Mostly Cloudy
3:42 PM 87.8 °F 86.5 °F 57.2 °F 35% 30.05 in 10.0 mi WNW 16.1 mph 23.0 mph N/A Thunderstorm Thunderstorm
3:56 PM 87.1 °F 86.1 °F 57.9 °F 37% 29.85 in 10.0 mi WNW 19.6 mph - N/A Thunderstorm Thunderstorm
4:56 PM 77.0 °F - 63.0 °F 62% 29.90 in 10.0 mi West 15.0 mph 25.3 mph 0.02 in Rain , Thunderstorm Light Thunderstorms and Rain
5:35 PM 78.8 °F - 60.8 °F 54% 30.06 in 10.0 mi West 17.3 mph - 0.00 in   Partly Cloudy
5:56 PM 78.1 °F - 60.1 °F 54% 29.87 in 10.0 mi West 15.0 mph 24.2 mph 0.00 in Thunderstorm Thunderstorm
6:18 PM - - - N/A% - - North - - N/A   Unknown
6:27 PM - - - N/A% - - North - - N/A   Unknown
6:33 PM - - - N/A% - 10.0 mi West 10.4 mph - N/A Thunderstorm Thunderstorm
6:56 PM 77.0 °F - 62.1 °F 60% 29.91 in 10.0 mi WNW 6.9 mph - N/A Thunderstorm Thunderstorm
7:27 PM 78.8 °F - 60.8 °F 54% 30.14 in 10.0 mi SE 25.3 mph 32.2 mph N/A   Partly Cloudy
7:38 PM 75.2 °F - 55.4 °F 50% 30.14 in 9.0 mi SSE 26.5 mph 35.7 mph N/A Thunderstorm Thunderstorm
7:45 PM 73.4 °F - 55.4 °F 53% 30.14 in 10.0 mi SE 18.4 mph 33.4 mph N/A Thunderstorm Thunderstorm
7:56 PM 73.9 °F - 55.0 °F 52% 29.96 in 10.0 mi SSE 24.2 mph 31.1 mph N/A Thunderstorm Thunderstorm
8:56 PM 72.0 °F - 57.9 °F 61% 29.99 in 10.0 mi South 16.1 mph 21.9 mph 0.00 in Rain , Thunderstorm Light Thunderstorms and Rain
9:21 PM 69.8 °F - 57.2 °F 64% 30.11 in 10.0 mi SW 16.1 mph - 0.02 in Rain Light Rain
9:56 PM 73.0 °F - 59.0 °F 61% 29.91 in 10.0 mi SSW 3.5 mph - 0.02 in   Scattered Clouds
10:56 PM 69.1 °F - 60.1 °F 73% 29.95 in 10.0 mi SSE 8.1 mph - 0.00 in   Clear
11:56 PM 71.1 °F - 60.1 °F 68% 29.94 in 10.0 mi South 3.5 mph - N/A   Clear